Flag for Germany Weather past 2 weeks in Stendal, Saxony-Anhalt, Germany

Now
53 °F

Overcast.


Feels Like: 53 °F
Forecast: 47 / 61 °F
Wind: 2 mph from Northwest

Location: Magdeburg

Current Time: Sep 23, 2014 at 3:07:49 AM

Latest Report: Sep 23, 2014 at 2:00 AM


Visibility: 25 mi

Pressure: 30.04 "Hg

Humidity: 78%

Dew point: 46 °F

Location of StendalLocation

Historic Weather in Stendal — Graph

°F

Stendal temperature yesterday

Maximum temperature yesterday: 58 °F (at 4:00 PM)
Minimum temperature yesterday: 50 °F (at 2:00 PM)
Average temperature yesterday: 54 °F

Past Weeks' High & Low Weather Summary

 TemperatureHumidityPressure
High77 °F (Sep 17, 5:00 PM)98% (Sep 13, 7:00 AM)30.19 "Hg (Sep 13, 7:00 AM)
Low50 °F (Sep 22, 2:00 PM)43% (Sep 17, 6:00 PM)29.87 "Hg (Sep 22, 11:00 AM)
Average62 °F84%30.02 "Hg
* Reported Sep 8 2:00 AM — Sep 23 2:00 AM, Stendal, Weather by CustomWeather, © 2014

Note: Actual official high and low records may vary slightly from our data, if they occured in-between our weather recording intervals... More about our weather records

Advertising

Stendal weather history for previous 24 hours

 ConditionsComfort  
Time TempWeatherWind HumidityBarometerVisibility
2:00 AM
Sep 23
53 °FOvercast.2 mph78%30.04 "Hg25 mi
1:00 AM53 °FOvercast.3 mph75%30.03 "Hg28 mi
12:00 AM53 °FOvercast.3 mph77%30.02 "Hg25 mi
10:00 PM
Sep 22
53 °FOvercast.2 mph75%30.00 "Hg25 mi
9:00 PM52 °FDrizzle. Overcast.2 mph79%30.00 "Hg8 mi
8:00 PM52 °FLight freezing rain. Overcast.2 mph80%29.98 "Hg12 mi
7:00 PM51 °FLight rain. Overcast.2 mph83%29.96 "Hg16 mi
6:00 PM52 °FLight rain. Overcast.5 mph82%29.96 "Hg10 mi
5:00 PM56 °FOvercast.5 mph54%29.92 "Hg22 mi
4:00 PM58 °FPartly sunny.3 mph52%29.90 "Hg37 mi
3:00 PM55 °FOvercast.3 mph63%29.90 "Hg28 mi
2:00 PM50 °FThunderstorms. Partly sunny.2 mph83%29.89 "Hg25 mi
1:00 PM55 °FOvercast.6 mph71%29.89 "Hg22 mi
12:00 PM54 °FOvercast.3 mph69%29.87 "Hg22 mi
11:00 AM55 °FOvercast.5 mph72%29.87 "Hg19 mi
10:00 AM55 °FOvercast.5 mph75%29.88 "Hg9 mi
9:00 AM54 °FPartly sunny.6 mph78%29.88 "Hg9 mi
8:00 AM54 °FOvercast.6 mph83%29.88 "Hg10 mi
7:00 AM54 °FOvercast.5 mph81%29.89 "Hg10 mi
6:00 AM54 °FOvercast.5 mph84%29.90 "Hg9 mi
4:00 AM54 °FPassing clouds.5 mph86%29.91 "Hg8 mi
3:00 AM55 °FPassing clouds.3 mph84%29.91 "Hg7 mi
Weather by CustomWeather, © 2014

See weather overviewHow to use our weather pages